| time (UTC) | temp F | wind direction | speed MPH | gust MPH | rain 1hr in | rain 24hr in | rain mn in | humidity % | barometer mb |
| 20260503174104 | 62 | 10 | 0.0 | 0.0 | 0.00 | 0.00 | 0.00 | 91 | 1014.8 |
| 20260503173604 | 62 | 10 | 0.0 | 0.0 | 0.00 | 0.00 | 0.00 | 91 | 1014.8 |
| 20260503171603 | 62 | 10 | 0.0 | 0.0 | 0.00 | 0.00 | 0.00 | 91 | 1014.9 |
| 20260503171103 | 62 | 10 | 0.0 | 0.0 | 0.00 | 0.00 | 0.00 | 91 | 1015.0 |
| 20260503170604 | 62 | 10 | 0.0 | 0.0 | 0.00 | 0.00 | 0.00 | 91 | 1015.0 |
| 20260503170103 | 62 | 10 | 0.0 | 0.0 | 0.00 | 0.00 | 0.00 | 91 | 1015.1 |
| 20260503160105 | 63 | 10 | 0.0 | 0.0 | 0.00 | 0.00 | 0.00 | 90 | 1015.8 |
| 20260503150605 | 64 | 10 | 0.0 | 0.0 | 0.00 | 0.00 | 0.00 | 89 | 1016.1 |
| 20260503150105 | 64 | 10 | 0.0 | 0.0 | 0.00 | 0.00 | 0.00 | 88 | 1016.1 |
| 20260503140105 | 65 | 10 | 0.0 | 0.0 | 0.00 | 0.00 | 0.00 | 87 | 1016.6 |
| 20260503131105 | 67 | 10 | 0.0 | 0.0 | 0.00 | 0.00 | 0.00 | 86 | 1017.1 |
| 20260503130105 | 67 | 10 | 0.0 | 0.0 | 0.00 | 0.00 | 0.00 | 86 | 1017.2 |
| 20260503120105 | 69 | 10 | 0.0 | 0.0 | 0.00 | 0.00 | 0.00 | 85 | 1017.6 |
| 20260503110605 | 69 | 10 | 0.0 | 0.0 | 0.00 | 0.00 | 0.00 | 85 | 1017.5 |
| 20260503110105 | 69 | 10 | 0.0 | 0.0 | 0.00 | 0.00 | 0.00 | 85 | 1017.5 |
| 20260503100105 | 70 | 5 | 0.0 | 0.0 | 0.00 | 0.00 | 0.00 | 84 | 1017.1 |
| 20260503090105 | 70 | 37 | 0.0 | 1.0 | 0.00 | 0.00 | 0.00 | 83 | 1017.2 |
| 20260503081604 | 71 | 37 | 0.0 | 3.0 | 0.00 | 0.00 | 0.00 | 80 | 1017.1 |
| 20260503080605 | 71 | 16 | 0.0 | 0.0 | 0.00 | 0.00 | 0.00 | 79 | 1017.1 |
| 20260503080105 | 71 | 15 | 2.0 | 7.0 | 0.00 | 0.00 | 0.00 | 79 | 1017.1 |
| 20260503072605 | 72 | 24 | 0.0 | 3.0 | 0.00 | 0.00 | 0.00 | 78 | 1017.0 |
| 20260503072104 | 72 | 28 | 1.0 | 6.0 | 0.00 | 0.00 | 0.00 | 77 | 1017.0 |
| 20260503071605 | 72 | 44 | 1.0 | 7.0 | 0.00 | 0.00 | 0.00 | 77 | 1016.9 |
| 20260503070604 | 72 | 9 | 1.0 | 3.0 | 0.00 | 0.00 | 0.00 | 76 | 1016.9 |
| 20260503060105 | 74 | 50 | 1.0 | 7.0 | 0.00 | 0.00 | 0.00 | 71 | 1017.0 |
| 20260503055104 | 75 | 39 | 1.0 | 8.0 | 0.00 | 0.00 | 0.00 | 70 | 1017.1 |
| 20260503054604 | 75 | 59 | 0.0 | 6.0 | 0.00 | 0.00 | 0.00 | 70 | 1017.1 |
| 20260503054104 | 75 | 21 | 0.0 | 3.0 | 0.00 | 0.00 | 0.00 | 70 | 1017.1 |
| 20260503053604 | 75 | 34 | 2.0 | 12.0 | 0.00 | 0.00 | 0.00 | 69 | 1017.2 |
| 20260503053104 | 75 | 37 | 2.0 | 10.0 | 0.00 | 0.00 | 0.00 | 69 | 1017.2 |
| 20260503052605 | 76 | 12 | 2.0 | 13.0 | 0.00 | 0.00 | 0.00 | 69 | 1017.2 |
| 20260503052105 | 76 | 57 | 1.0 | 9.0 | 0.00 | 0.00 | 0.00 | 69 | 1017.2 |
| 20260503051605 | 76 | 42 | 1.0 | 7.0 | 0.00 | 0.00 | 0.00 | 70 | 1017.3 |
| 20260503050605 | 75 | 32 | 2.0 | 12.0 | 0.00 | 0.00 | 0.00 | 70 | 1017.3 |
| 20260503050105 | 75 | 55 | 1.0 | 12.0 | 0.00 | 0.00 | 0.00 | 70 | 1017.4 |
| 20260503045604 | 74 | 31 | 3.0 | 9.0 | 0.00 | 0.00 | 0.00 | 69 | 1017.4 |
| 20260503045104 | 74 | 36 | 3.0 | 10.0 | 0.00 | 0.00 | 0.00 | 69 | 1017.5 |
| 20260503044604 | 74 | 55 | 5.0 | 14.0 | 0.00 | 0.00 | 0.00 | 69 | 1017.5 |
| 20260503044104 | 74 | 42 | 2.0 | 8.0 | 0.00 | 0.00 | 0.00 | 69 | 1017.6 |
| 20260503043604 | 74 | 57 | 2.0 | 9.0 | 0.00 | 0.00 | 0.00 | 68 | 1017.5 |
| 20260503043104 | 74 | 45 | 4.0 | 10.0 | 0.00 | 0.00 | 0.00 | 68 | 1017.6 |
| 20260503042605 | 74 | 44 | 1.0 | 12.0 | 0.00 | 0.00 | 0.00 | 67 | 1017.7 |
| 20260503042105 | 75 | 53 | 3.0 | 10.0 | 0.00 | 0.00 | 0.00 | 67 | 1017.7 |
| 20260503041104 | 75 | 37 | 1.0 | 10.0 | 0.00 | 0.00 | 0.00 | 66 | 1017.7 |
| 20260503040604 | 75 | 49 | 2.0 | 9.0 | 0.00 | 0.00 | 0.00 | 66 | 1017.7 |
| 20260503040104 | 75 | 50 | 1.0 | 10.0 | 0.00 | 0.00 | 0.00 | 66 | 1017.7 |
| 20260503035604 | 75 | 41 | 2.0 | 7.0 | 0.00 | 0.00 | 0.00 | 65 | 1017.8 |
| 20260503035104 | 75 | 33 | 2.0 | 9.0 | 0.00 | 0.00 | 0.00 | 65 | 1017.9 |
| 20260503034605 | 75 | 56 | 1.0 | 7.0 | 0.00 | 0.00 | 0.00 | 65 | 1017.9 |
| 20260503034105 | 76 | 48 | 1.0 | 7.0 | 0.00 | 0.00 | 0.00 | 65 | 1017.9 |
| 20260503033605 | 76 | 53 | 3.0 | 9.0 | 0.00 | 0.00 | 0.00 | 63 | 1017.9 |
| 20260503033105 | 76 | 45 | 3.0 | 9.0 | 0.00 | 0.00 | 0.00 | 62 | 1018.0 |
| 20260503032605 | 77 | 49 | 4.0 | 9.0 | 0.00 | 0.00 | 0.00 | 61 | 1018.1 |
| 20260503032104 | 77 | 50 | 1.0 | 5.0 | 0.00 | 0.00 | 0.00 | 62 | 1018.2 |
| 20260503031604 | 77 | 44 | 1.0 | 8.0 | 0.00 | 0.00 | 0.00 | 62 | 1018.2 |
| 20260503031104 | 77 | 48 | 1.0 | 9.0 | 0.00 | 0.00 | 0.00 | 62 | 1018.3 |
| 20260503030604 | 77 | 12 | 1.0 | 9.0 | 0.00 | 0.00 | 0.00 | 61 | 1018.3 |
| 20260503030104 | 77 | 53 | 5.0 | 10.0 | 0.00 | 0.00 | 0.00 | 61 | 1018.5 |
| 20260503025604 | 77 | 49 | 3.0 | 13.0 | 0.00 | 0.00 | 0.00 | 60 | 1018.6 |
| 20260503025104 | 78 | 50 | 1.0 | 5.0 | 0.00 | 0.00 | 0.00 | 60 | 1018.7 |
| 20260503024605 | 78 | 42 | 2.0 | 6.0 | 0.00 | 0.00 | 0.00 | 59 | 1018.7 |
| 20260503024105 | 78 | 45 | 3.0 | 10.0 | 0.00 | 0.00 | 0.00 | 58 | 1018.8 |
| 20260503023104 | 78 | 50 | 3.0 | 12.0 | 0.00 | 0.00 | 0.00 | 59 | 1018.8 |
| 20260503022604 | 78 | 34 | 1.0 | 7.0 | 0.00 | 0.00 | 0.00 | 59 | 1019.0 |
| 20260503022104 | 78 | 21 | 0.0 | 3.0 | 0.00 | 0.00 | 0.00 | 59 | 1019.1 |
| 20260503021604 | 77 | 26 | 2.0 | 5.0 | 0.00 | 0.00 | 0.00 | 57 | 1019.2 |
| 20260503021104 | 77 | 359 | 0.0 | 3.0 | 0.00 | 0.00 | 0.00 | 55 | 1019.3 |
| 20260503020604 | 77 | 359 | 2.0 | 5.0 | 0.00 | 0.00 | 0.00 | 55 | 1019.4 |
| 20260503020104 | 77 | 359 | 2.0 | 8.0 | 0.00 | 0.00 | 0.00 | 56 | 1019.6 |
| 20260503015604 | 76 | 359 | 2.0 | 5.0 | 0.00 | 0.00 | 0.00 | 57 | 1019.7 |
| 20260503015105 | 76 | 359 | 1.0 | 5.0 | 0.00 | 0.00 | 0.00 | 57 | 1019.8 |
| 20260503014605 | 76 | 359 | 2.0 | 5.0 | 0.00 | 0.00 | 0.00 | 59 | 1019.8 |
| 20260503014104 | 76 | 359 | 1.0 | 3.0 | 0.00 | 0.00 | 0.00 | 59 | 1020.0 |
| 20260503013605 | 76 | 13 | 1.0 | 5.0 | 0.00 | 0.00 | 0.00 | 59 | 1020.1 |
| 20260503012104 | 75 | 3 | 1.0 | 6.0 | 0.00 | 0.00 | 0.00 | 62 | 1020.3 |
| 20260503011605 | 74 | 359 | 0.0 | 5.0 | 0.00 | 0.00 | 0.00 | 63 | 1020.4 |
| 20260503010104 | 73 | 359 | 0.0 | 3.0 | 0.00 | 0.00 | 0.00 | 67 | 1020.6 |
| 20260503005604 | 73 | 359 | 0.0 | 3.0 | 0.00 | 0.00 | 0.00 | 67 | 1020.7 |
| 20260503005104 | 72 | 359 | 1.0 | 6.0 | 0.00 | 0.00 | 0.00 | 68 | 1020.8 |
| 20260503003604 | 72 | 359 | 2.0 | 7.0 | 0.00 | 0.00 | 0.00 | 70 | 1021.0 |
| 20260503003104 | 72 | 359 | 1.0 | 5.0 | 0.00 | 0.00 | 0.00 | 70 | 1021.0 |
| 20260503002104 | 71 | 359 | 1.0 | 2.0 | 0.00 | 0.00 | 0.00 | 73 | 1021.2 |
| 20260503001605 | 71 | 359 | 1.0 | 5.0 | 0.00 | 0.00 | 0.00 | 74 | 1021.3 |
| 20260503000604 | 70 | 1 | 1.0 | 3.0 | 0.00 | 0.00 | 0.00 | 75 | 1021.3 |
| 20260502235604 | 70 | 5 | 0.0 | 7.0 | 0.00 | 0.00 | 0.00 | 77 | 1021.2 |
| 20260502235104 | 69 | 359 | 0.0 | 3.0 | 0.00 | 0.00 | 0.00 | 78 | 1021.3 |
| 20260502234604 | 69 | 359 | 0.0 | 0.0 | 0.00 | 0.00 | 0.00 | 79 | 1021.3 |
| 20260502234104 | 69 | 359 | 0.0 | 5.0 | 0.00 | 0.00 | 0.00 | 79 | 1021.3 |
| 20260502233604 | 69 | 359 | 1.0 | 5.0 | 0.00 | 0.00 | 0.00 | 80 | 1021.5 |
| 20260502233104 | 68 | 359 | 0.0 | 2.0 | 0.00 | 0.00 | 0.00 | 80 | 1021.6 |
| 20260502232604 | 68 | 359 | 0.0 | 1.0 | 0.00 | 0.00 | 0.00 | 81 | 1021.6 |
| 20260502232105 | 68 | 359 | 2.0 | 5.0 | 0.00 | 0.00 | 0.00 | 82 | 1021.6 |
| 20260502231604 | 67 | 359 | 0.0 | 5.0 | 0.00 | 0.00 | 0.00 | 83 | 1021.7 |
| 20260502231105 | 67 | 359 | 1.0 | 3.0 | 0.00 | 0.00 | 0.00 | 84 | 1021.6 |
| 20260502230604 | 66 | 359 | 0.0 | 1.0 | 0.00 | 0.00 | 0.00 | 86 | 1021.8 |
| 20260502230104 | 66 | 359 | 0.0 | 3.0 | 0.00 | 0.00 | 0.00 | 87 | 1021.7 |
| 20260502225604 | 65 | 359 | 1.0 | 3.0 | 0.00 | 0.00 | 0.00 | 88 | 1021.9 |
| 20260502225104 | 65 | 359 | 0.0 | 3.0 | 0.00 | 0.00 | 0.00 | 88 | 1021.9 |
| 20260502224605 | 65 | 359 | 0.0 | 0.0 | 0.00 | 0.00 | 0.00 | 89 | 1021.9 |
| 20260502224104 | 64 | 359 | 1.0 | 3.0 | 0.00 | 0.00 | 0.00 | 90 | 1022.0 |
| 20260502223604 | 64 | 359 | 0.0 | 3.0 | 0.00 | 0.00 | 0.00 | 91 | 1022.0 |
| 20260502223104 | 64 | 359 | 1.0 | 3.0 | 0.00 | 0.00 | 0.00 | 91 | 1021.9 |
| 20260502222604 | 63 | 38 | 0.0 | 1.0 | 0.00 | 0.00 | 0.00 | 91 | 1021.8 |
| 20260502222104 | 63 | 39 | 0.0 | 0.0 | 0.00 | 0.00 | 0.00 | 91 | 1021.8 |
| 20260502221604 | 63 | 39 | 0.0 | 0.0 | 0.00 | 0.00 | 0.00 | 91 | 1021.9 |
| 20260502220104 | 62 | 39 | 0.0 | 0.0 | 0.00 | 0.00 | 0.00 | 91 | 1021.7 |
| 20260502215604 | 62 | 40 | 0.0 | 0.0 | 0.00 | 0.00 | 0.00 | 90 | 1021.6 |
| 20260502215104 | 62 | 39 | 0.0 | 0.0 | 0.00 | 0.00 | 0.00 | 90 | 1021.6 |
| 20260502214604 | 62 | 39 | 0.0 | 0.0 | 0.00 | 0.00 | 0.00 | 90 | 1021.6 |
| 20260502214104 | 62 | 39 | 0.0 | 0.0 | 0.00 | 0.00 | 0.00 | 90 | 1021.5 |
| 20260502213604 | 62 | 40 | 0.0 | 0.0 | 0.00 | 0.00 | 0.00 | 90 | 1021.3 |
| 20260502213104 | 62 | 39 | 0.0 | 0.0 | 0.00 | 0.00 | 0.00 | 90 | 1021.2 |
| 20260502212604 | 62 | 39 | 0.0 | 0.0 | 0.00 | 0.00 | 0.00 | 90 | 1021.2 |
| 20260502212105 | 62 | 39 | 0.0 | 0.0 | 0.00 | 0.00 | 0.00 | 90 | 1021.3 |
| 20260502211604 | 62 | 39 | 0.0 | 0.0 | 0.00 | 0.00 | 0.00 | 90 | 1021.2 |
| 20260502211104 | 62 | 39 | 0.0 | 0.0 | 0.00 | 0.00 | 0.00 | 90 | 1021.2 |
| 20260502210604 | 62 | 40 | 0.0 | 0.0 | 0.00 | 0.00 | 0.00 | 90 | 1021.3 |
| 20260502210104 | 62 | 39 | 0.0 | 0.0 | 0.00 | 0.00 | 0.00 | 90 | 1021.2 |
| 20260502205604 | 62 | 40 | 0.0 | 0.0 | 0.00 | 0.00 | 0.00 | 89 | 1021.2 |
| 20260502205104 | 62 | 39 | 0.0 | 0.0 | 0.00 | 0.00 | 0.00 | 89 | 1021.1 |
| 20260502204605 | 62 | 39 | 0.0 | 0.0 | 0.00 | 0.00 | 0.00 | 89 | 1021.1 |
| 20260502204104 | 62 | 40 | 0.0 | 0.0 | 0.00 | 0.00 | 0.00 | 89 | 1021.1 |
| 20260502203604 | 62 | 40 | 0.0 | 0.0 | 0.00 | 0.00 | 0.00 | 89 | 1021.0 |
| 20260502203104 | 62 | 40 | 0.0 | 0.0 | 0.00 | 0.00 | 0.00 | 89 | 1021.1 |
| 20260502202604 | 62 | 39 | 0.0 | 0.0 | 0.00 | 0.00 | 0.00 | 89 | 1021.0 |
| 20260502202104 | 62 | 39 | 0.0 | 0.0 | 0.00 | 0.00 | 0.00 | 89 | 1021.1 |
| 20260502201604 | 63 | 39 | 0.0 | 0.0 | 0.00 | 0.00 | 0.00 | 89 | 1021.2 |
| 20260502201104 | 63 | 39 | 0.0 | 0.0 | 0.00 | 0.00 | 0.00 | 89 | 1021.2 |
| 20260502200604 | 63 | 39 | 0.0 | 0.0 | 0.00 | 0.00 | 0.00 | 89 | 1021.1 |
| 20260502200104 | 63 | 39 | 0.0 | 0.0 | 0.00 | 0.00 | 0.00 | 89 | 1021.1 |
| 20260502195604 | 63 | 39 | 0.0 | 0.0 | 0.00 | 0.00 | 0.00 | 89 | 1021.1 |
| 20260502195104 | 63 | 39 | 0.0 | 0.0 | 0.00 | 0.00 | 0.00 | 89 | 1021.0 |
| 20260502194604 | 63 | 40 | 0.0 | 0.0 | 0.00 | 0.00 | 0.00 | 89 | 1020.9 |
| 20260502194104 | 63 | 39 | 0.0 | 0.0 | 0.00 | 0.00 | 0.00 | 89 | 1021.0 |
| 20260502193604 | 63 | 39 | 0.0 | 0.0 | 0.00 | 0.00 | 0.00 | 89 | 1021.0 |
| 20260502193104 | 63 | 40 | 0.0 | 0.0 | 0.00 | 0.00 | 0.00 | 89 | 1020.9 |
| 20260502192604 | 63 | 39 | 0.0 | 0.0 | 0.00 | 0.00 | 0.00 | 89 | 1020.8 |
| 20260502192104 | 63 | 40 | 0.0 | 0.0 | 0.00 | 0.00 | 0.00 | 89 | 1020.9 |
| 20260502191604 | 63 | 40 | 0.0 | 0.0 | 0.00 | 0.00 | 0.00 | 89 | 1020.9 |
| 20260502191104 | 63 | 40 | 0.0 | 0.0 | 0.00 | 0.00 | 0.00 | 89 | 1021.0 |
| 20260502190604 | 63 | 39 | 0.0 | 0.0 | 0.00 | 0.00 | 0.00 | 90 | 1020.9 |
| 20260502190104 | 63 | 39 | 0.0 | 0.0 | 0.00 | 0.00 | 0.00 | 90 | 1020.9 |
| 20260502185604 | 63 | 39 | 0.0 | 0.0 | 0.00 | 0.00 | 0.00 | 90 | 1020.9 |
| 20260502185104 | 63 | 40 | 0.0 | 0.0 | 0.00 | 0.00 | 0.00 | 90 | 1020.8 |
| 20260502184604 | 63 | 39 | 0.0 | 0.0 | 0.00 | 0.00 | 0.00 | 90 | 1020.9 |
| 20260502184104 | 63 | 39 | 0.0 | 0.0 | 0.00 | 0.00 | 0.00 | 90 | 1020.9 |
| 20260502183604 | 63 | 40 | 0.0 | 0.0 | 0.00 | 0.00 | 0.00 | 89 | 1020.9 |
| 20260502183104 | 63 | 39 | 0.0 | 0.0 | 0.00 | 0.00 | 0.00 | 89 | 1020.9 |
| 20260502182104 | 63 | 39 | 0.0 | 0.0 | 0.00 | 0.00 | 0.00 | 89 | 1020.9 |
| 20260502181604 | 63 | 40 | 0.0 | 0.0 | 0.00 | 0.00 | 0.00 | 89 | 1020.9 |
| 20260502181104 | 63 | 40 | 0.0 | 0.0 | 0.00 | 0.00 | 0.00 | 89 | 1020.9 |
| 20260502180604 | 63 | 40 | 0.0 | 0.0 | 0.00 | 0.00 | 0.00 | 89 | 1020.9 |
| 20260502180104 | 63 | 40 | 0.0 | 0.0 | 0.00 | 0.00 | 0.00 | 89 | 1020.9 |